Regional Weather Roundup
Issued by NWS

Home | Current Version | Previous Version | Graphics & Text | Print | Product List | Glossary On
Versions: 1 2 3 4 5 6 7 8 9 10 11 12 13 14 15 16 17 18 19 20 21 22 23 24 25 26 27 28 29 30 31 32 33 34 35 36 37 38 39 40 41 42 43 44 45 46 47 48 49 50
000
ASUS43 KBIS 302002
RWRND

NORTH DAKOTA REGIONAL WEATHER ROUNDUP
NATIONAL WEATHER SERVICE BISMARCK ND
300 PM CDT TUE JUN 30 2015

NOTE: "FAIR" INDICATES FEW OR NO CLOUDS BELOW 12,000 FEET WITH NO
SIGNIFICANT WEATHER AND/OR OBSTRUCTIONS TO VISIBILITY.


NDZ001>003-009>011-017-302100-
NORTHWEST NORTH DAKOTA

CITY           SKY/WX    TMP DP  RH WIND       PRES   REMARKS
WILLISTON      PTSUNNY   79  55  43 E15       29.89F HAZE
MINOT          CLOUDY    69  65  86 NW7       29.93R FOG
MINOT AFB      LGT RAIN  69  69 100 N8        29.91R FOG
$$

NDZ018>021-031>035-040>046-302100-
SOUTHWEST NORTH DAKOTA

CITY           SKY/WX    TMP DP  RH WIND       PRES   REMARKS
BISMARCK       CLOUDY    75  60  59 S6        29.90F
DICKINSON      PTSUNNY   77  63  61 SE17      29.89F
GARRISON         N/A     71  66  84 CALM      29.90F
HETTINGER ARPT CLOUDY    75  64  68 SE14G21   29.92F
$$

NDZ004>008-012>016-024-026-027-054-302100-
NORTHEAST NORTH DAKOTA

CITY           SKY/WX    TMP DP  RH WIND       PRES   REMARKS
GRAND FORKS    CLOUDY    75  56  51 SE7       29.91F
GRND FRKS AFB  CLOUDY    73  60  62 E9        29.91F
DEVILS LAKE    CLOUDY    70  57  64 SE9       29.92S
$$

NDZ022-023-025-028>030-036>039-047>053-302100-
SOUTHEAST NORTH DAKOTA

CITY           SKY/WX    TMP DP  RH WIND       PRES   REMARKS
FARGO          CLOUDY    73  58  59 E6        29.91F
JAMESTOWN      CLOUDY    72  60  66 SE9       29.92F
$$




USA.gov is the U.S. government's official web portal to all federal, state and local government web resources and services.